CZ-6A DEB, 54945

Orbit data source: Space-Track

CZ-6A DEB, 54945 is space debris in SSO originally from a launch on Fri, 11 Nov 2022 UTC launched from the Taiyaun Space Center, China (TSC). Debris objects in space refer to the collection of defunct objects orbiting the Earth. Examples of debris include non-operational satellites, rocket bodies, and fragments generated from explosions, collisions, or faulty payload assembly.

Loading next visibility...
Identifier
54945, 2022-151SJ
Orbit
SSO
Country
Flag of CNCN / PRC
Related business
Manufacturer
SAST
Mission
Spacecraft
Bus & Motor
Unknown
Mass
Unknown
Launch date (UTC)
2022-11-11 (4 years ago)
Launch vehicle
Unknown
Launch site
Taiyaun Space Center, China (TSC)
Object type
Payload
Rocket body
Debris
Shape & HBR
Unknown shape, 0.1 m
Radar Cross Section
Medium (>0.1 m² and <1 m²)

Expand to show TLE details & history
Last TLE update: 1 day ago

TLE from 1 day ago
0 CZ-6A DEB
1 54945U 22151SJ  26235.33005990  .00010095  00000-0  18624-2 0  9993
2 54945  99.1429  16.5710 0069719 148.0092 212.5369 14.64135894127934
Epoch: 2026-08-23T07:55Z
TLE epoch observation values (Epoch: 2026-08-23T07:55:17.175Z)
Latitude
0.00001°
Longitude
-73.87823°
Altitude
724.403 km
Speed
7.471 km/s
True Right ascension
01h 06m 17s
True Declination
0° 00' 00"
Sunlit
Object was in full shadow at epoch
Visualization orbit readout
Latitude
Unknown
Longitude
Unknown
Altitude
Unknown
Speed
Unknown
Apparent Right ascension
Unknown
Apparent Declination
Unknown
Sunlit
N/A
Visualization observer readout
Local Sidereal Time
00:45:50
Azimuth
Unknown
Elevation
Unknown
Doppler factor
Unknown
Orbital elements
Apogee altitude
726.16 km
Perigee altitude
627.785 km
Semi-major axis
7,055.109 km
Eccentricity
0.00697
Inclination
99.1429°
RAAN
16.571°
Arg. of periapsis
148.0092°
True anomaly
212.11035°
Mean anomaly
212.5369°
Eccentric anomaly
212.32331°
Mean motion
3.66258 °/min
Orbital period
98.29 mins
BSTAR
0.0018624
Loading maneuver chart data...
Computing Atmospheric mass density...
Loading historical data...
Loading historical data...
Loading historical data...
Loading historical data...
Loading historical data...
Loading historical data...
Loading historical data...

Documentation

Showing up to 5 results
|